owner,sensor,date,latitude,longitude,vertical_datum,direction_of_sea_water_velocity,sea_water_speed,upward_sea_water_velocity,qcFlag 
TABS,ioos:station:wmo:42050:1,2012-07-01T00:00:00Z,28.8425,-94.2433,2.0,272.7204927,17.48970554,-99999.0,'11111222,11111222,99999999' 
TABS,ioos:station:wmo:42050:1,2012-07-01T00:30:00Z,28.8425,-94.2433,2.0,292.4006668,15.45626734,-99999.0,'11111222,11111222,99999999' 
TABS,ioos:station:wmo:42050:1,2012-07-01T01:00:00Z,28.8425,-94.2433,2.0,312.6123896,16.97115789,-99999.0,'11111222,11111222,99999999' 
TABS,ioos:station:wmo:42050:1,2012-07-01T01:30:00Z,28.8425,-94.2433,2.0,323.7305528,13.55674371,-99999.0,'11111222,11111222,99999999' 
TABS,ioos:station:wmo:42050:1,2012-07-01T02:00:00Z,28.8425,-94.2433,2.0,334.6075278,18.14278093,-99999.0,'11111222,11111222,99999999' 
TABS,ioos:station:wmo:42050:1,2012-07-01T02:30:00Z,28.8425,-94.2433,2.0,337.073044,20.79260686,-99999.0,'11111222,11111222,99999999' 
TABS,ioos:station:wmo:42050:1,2012-07-01T03:00:00Z,28.8425,-94.2433,2.0,343.0332929,22.95934668,-99999.0,'11111222,11111222,99999999' 
TABS,ioos:station:wmo:42050:1,2012-07-01T03:30:00Z,28.8425,-94.2433,2.0,346.1595473,22.74027265,-99999.0,'11111222,11111222,99999999' 
TABS,ioos:station:wmo:42050:1,2012-07-01T04:00:00Z,28.8425,-94.2433,2.0,349.9448165,25.8876515,-99999.0,'11111222,11111222,99999999' 
TABS,ioos:station:wmo:42050:1,2012-07-01T04:30:00Z,28.8425,-94.2433,2.0,356.5696399,26.23701584,-99999.0,'11111222,11111222,99999999' 
TABS,ioos:station:wmo:42050:1,2012-07-01T05:00:00Z,28.8425,-94.2433,2.0,359.3261751,24.65170582,-99999.0,'11111222,11144222,99999999' 
TABS,ioos:station:wmo:42050:1,2012-07-01T05:30:00Z,28.8425,-94.2433,2.0,8.862206875,19.92789502,-99999.0,'11111222,11111222,99999999' 
TABS,ioos:station:wmo:42050:1,2012-07-01T06:00:00Z,28.8425,-94.2433,2.0,20.72729321,18.4223587,-99999.0,'11111222,11111222,99999999' 
TABS,ioos:station:wmo:42050:1,2012-07-01T06:30:00Z,28.8425,-94.2433,2.0,27.00881387,15.01788267,-99999.0,'11111222,11111222,99999999' 
TABS,ioos:station:wmo:42050:1,2012-07-01T07:00:00Z,28.8425,-94.2433,2.0,38.35768888,15.09908938,-99999.0,'11111222,11111222,99999999' 
TABS,ioos:station:wmo:42050:1,2012-07-01T07:30:00Z,28.8425,-94.2433,2.0,47.27983323,11.91003359,-99999.0,'11111222,11111222,99999999' 
TABS,ioos:station:wmo:42050:1,2012-07-01T08:00:00Z,28.8425,-94.2433,2.0,64.4946407,11.12410446,-99999.0,'11111222,11111222,99999999' 
TABS,ioos:station:wmo:42050:1,2012-07-01T08:30:00Z,28.8425,-94.2433,2.0,70.23068132,15.3443703,-99999.0,'11111222,11111222,99999999' 
TABS,ioos:station:wmo:42050:1,2012-07-01T09:00:00Z,28.8425,-94.2433,2.0,88.25675759,16.1074548,-99999.0,'11111222,11111222,99999999' 
TABS,ioos:station:wmo:42050:1,2012-07-01T09:30:00Z,28.8425,-94.2433,2.0,104.5667887,16.50040606,-99999.0,'11111222,11111222,99999999' 
TABS,ioos:station:wmo:42050:1,2012-07-01T10:00:00Z,28.8425,-94.2433,2.0,117.4063219,15.83754084,-99999.0,'11111222,11111222,99999999' 
TABS,ioos:station:wmo:42050:1,2012-07-01T10:30:00Z,28.8425,-94.2433,2.0,115.5930544,14.2368571,-99999.0,'11111222,11111222,99999999' 
TABS,ioos:station:wmo:42050:1,2012-07-01T11:00:00Z,28.8425,-94.2433,2.0,101.8658196,12.93642918,-99999.0,'11111222,11111222,99999999' 
TABS,ioos:station:wmo:42050:1,2012-07-01T11:30:00Z,28.8425,-94.2433,2.0,103.1569166,12.16944534,-99999.0,'11111222,11111222,99999999' 
TABS,ioos:station:wmo:42050:1,2012-07-01T12:00:00Z,28.8425,-94.2433,2.0,101.6744749,11.71229269,-99999.0,'11111222,11111222,99999999' 
TABS,ioos:station:wmo:42050:1,2012-07-01T12:30:00Z,28.8425,-94.2433,2.0,111.8350371,12.63656995,-99999.0,'11111222,11111222,99999999' 
TABS,ioos:station:wmo:42050:1,2012-07-01T13:00:00Z,28.8425,-94.2433,2.0,107.5074514,11.13583854,-99999.0,'11111222,11111222,99999999' 
TABS,ioos:station:wmo:42050:1,2012-07-01T13:30:00Z,28.8425,-94.2433,2.0,111.2276015,11.68267949,-99999.0,'11111222,11111222,99999999' 
TABS,ioos:station:wmo:42050:1,2012-07-01T14:00:00Z,28.8425,-94.2433,2.0,105.5025025,7.108621526,-99999.0,'11133222,11111222,99999999' 
TABS,ioos:station:wmo:42050:1,2012-07-01T14:30:00Z,28.8425,-94.2433,2.0,93.52918205,6.822939249,-99999.0,'11133222,11111222,99999999' 
TABS,ioos:station:wmo:42050:1,2012-07-01T15:00:00Z,28.8425,-94.2433,2.0,104.1202629,4.959858869,-99999.0,'11133222,11111222,99999999' 
TABS,ioos:station:wmo:42050:1,2012-07-01T15:30:00Z,28.8425,-94.2433,2.0,66.63933727,2.320193957,-99999.0,'11133222,11111222,99999999' 
TABS,ioos:station:wmo:42050:1,2012-07-01T16:00:00Z,28.8425,-94.2433,2.0,75.71160944,2.755231388,-99999.0,'11133222,11111222,99999999' 
TABS,ioos:station:wmo:42050:1,2012-07-01T16:30:00Z,28.8425,-94.2433,2.0,97.28594209,4.415653972,-99999.0,'11133222,11111222,99999999' 
TABS,ioos:station:wmo:42050:1,2012-07-01T17:00:00Z,28.8425,-94.2433,2.0,91.88696472,5.162799628,-99999.0,'11133222,11111222,99999999' 
TABS,ioos:station:wmo:42050:1,2012-07-01T17:30:00Z,28.8425,-94.2433,2.0,118.1624615,5.614712815,-99999.0,'11133222,11111222,99999999' 
TABS,ioos:station:wmo:42050:1,2012-07-01T18:00:00Z,28.8425,-94.2433,2.0,137.0575359,7.089781379,-99999.0,'11133222,11111222,99999999' 
TABS,ioos:station:wmo:42050:1,2012-07-01T18:30:00Z,28.8425,-94.2433,2.0,151.8801855,6.428825709,-99999.0,'11133222,11111222,99999999' 
TABS,ioos:station:wmo:42050:1,2012-07-01T19:00:00Z,28.8425,-94.2433,2.0,179.1682711,6.890725651,-99999.0,'11133222,11111222,99999999' 
TABS,ioos:station:wmo:42050:1,2012-07-01T19:30:00Z,28.8425,-94.2433,2.0,190.9314815,12.18103854,-99999.0,'11111222,11111222,99999999' 
TABS,ioos:station:wmo:42050:1,2012-07-01T20:00:00Z,28.8425,-94.2433,2.0,189.382465,8.280784987,-99999.0,'11133222,11111222,99999999' 
TABS,ioos:station:wmo:42050:1,2012-07-01T20:30:00Z,28.8425,-94.2433,2.0,206.9392546,10.94802265,-99999.0,'11111222,11111222,99999999' 
TABS,ioos:station:wmo:42050:1,2012-07-01T21:00:00Z,28.8425,-94.2433,2.0,204.9805312,13.42601207,-99999.0,'11111222,11111222,99999999' 
TABS,ioos:station:wmo:42050:1,2012-07-01T21:30:00Z,28.8425,-94.2433,2.0,211.7806303,14.06945983,-99999.0,'11111222,11111222,99999999' 
TABS,ioos:station:wmo:42050:1,2012-07-01T22:00:00Z,28.8425,-94.2433,2.0,216.5575788,14.69021783,-99999.0,'11111222,11111222,99999999' 
TABS,ioos:station:wmo:42050:1,2012-07-01T22:30:00Z,28.8425,-94.2433,2.0,224.6393391,12.3675422,-99999.0,'11111222,11111222,99999999' 
TABS,ioos:station:wmo:42050:1,2012-07-01T23:00:00Z,28.8425,-94.2433,2.0,237.7201747,13.29464554,-99999.0,'11111222,11111222,99999999' 
TABS,ioos:station:wmo:42050:1,2012-07-01T23:30:00Z,28.8425,-94.2433,2.0,244.7179845,10.98184866,-99999.0,'11111222,11111222,99999999' 
TABS,ioos:station:wmo:42050:1,2012-07-02T00:00:00Z,28.8425,-94.2433,2.0,257.878592,12.19180052,-99999.0,'11111222,11111222,99999999' 
TABS,ioos:station:wmo:42050:1,2012-07-02T00:30:00Z,28.8425,-94.2433,2.0,278.3249457,12.50171988,-99999.0,'11111222,11111222,99999999' 
TABS,ioos:station:wmo:42050:1,2012-07-02T01:00:00Z,28.8425,-94.2433,2.0,281.1222381,12.54561676,-99999.0,'11111222,11111222,99999999' 
TABS,ioos:station:wmo:42050:1,2012-07-02T01:30:00Z,28.8425,-94.2433,2.0,285.0688738,9.693296653,-99999.0,'11133222,11111222,99999999' 
TABS,ioos:station:wmo:42050:1,2012-07-02T02:00:00Z,28.8425,-94.2433,2.0,295.6050187,13.07389001,-99999.0,'11111222,11111222,99999999' 
TABS,ioos:station:wmo:42050:1,2012-07-02T02:30:00Z,28.8425,-94.2433,2.0,307.1633598,15.24619953,-99999.0,'11111222,11111222,99999999' 
TABS,ioos:station:wmo:42050:1,2012-07-02T03:00:00Z,28.8425,-94.2433,2.0,321.6657345,17.0575731,-99999.0,'11111222,11111222,99999999' 
TABS,ioos:station:wmo:42050:1,2012-07-02T03:30:00Z,28.8425,-94.2433,2.0,329.4755861,17.68030826,-99999.0,'11111222,11111222,99999999' 
TABS,ioos:station:wmo:42050:1,2012-07-02T04:00:00Z,28.8425,-94.2433,2.0,339.59733,17.95651692,-99999.0,'11111222,11111222,99999999' 
TABS,ioos:station:wmo:42050:1,2012-07-02T04:30:00Z,28.8425,-94.2433,2.0,340.6673854,19.57374006,-99999.0,'11111222,11111222,99999999' 
TABS,ioos:station:wmo:42050:1,2012-07-02T05:00:00Z,28.8425,-94.2433,2.0,346.6764004,21.26231643,-99999.0,'11111222,11111222,99999999' 
TABS,ioos:station:wmo:42050:1,2012-07-02T05:30:00Z,28.8425,-94.2433,2.0,350.7527243,18.85505237,-99999.0,'11111222,11111222,99999999' 
TABS,ioos:station:wmo:42050:1,2012-07-02T06:00:00Z,28.8425,-94.2433,2.0,4.640657872,18.54077668,-99999.0,'11111222,11111222,99999999' 
TABS,ioos:station:wmo:42050:1,2012-07-02T06:30:00Z,28.8425,-94.2433,2.0,9.479495414,16.63717825,-99999.0,'11111222,11111222,99999999' 
TABS,ioos:station:wmo:42050:1,2012-07-02T07:00:00Z,28.8425,-94.2433,2.0,6.440474953,13.90776761,-99999.0,'11111222,11111222,99999999' 
TABS,ioos:station:wmo:42050:1,2012-07-02T07:30:00Z,28.8425,-94.2433,2.0,24.8600141,13.22549054,-99999.0,'11111222,11111222,99999999' 
TABS,ioos:station:wmo:42050:1,2012-07-02T08:00:00Z,28.8425,-94.2433,2.0,21.168575,14.45540729,-99999.0,'11111222,11111222,99999999' 
TABS,ioos:station:wmo:42050:1,2012-07-02T08:30:00Z,28.8425,-94.2433,2.0,35.45802212,11.68754893,-99999.0,'11111222,11111222,99999999' 
TABS,ioos:station:wmo:42050:1,2012-07-02T09:00:00Z,28.8425,-94.2433,2.0,54.68300349,9.963658966,-99999.0,'11133222,11111222,99999999' 
TABS,ioos:station:wmo:42050:1,2012-07-02T09:30:00Z,28.8425,-94.2433,2.0,63.00499452,12.51338883,-99999.0,'11111222,11111222,99999999' 
TABS,ioos:station:wmo:42050:1,2012-07-02T10:00:00Z,28.8425,-94.2433,2.0,72.91208175,14.25948807,-99999.0,'11111222,11111222,99999999' 
TABS,ioos:station:wmo:42050:1,2012-07-02T10:30:00Z,28.8425,-94.2433,2.0,83.01543053,13.15764417,-99999.0,'11111222,11111222,99999999' 
TABS,ioos:station:wmo:42050:1,2012-07-02T11:00:00Z,28.8425,-94.2433,2.0,81.32093337,12.98873358,-99999.0,'11111222,11111222,99999999' 
TABS,ioos:station:wmo:42050:1,2012-07-02T11:30:00Z,28.8425,-94.2433,2.0,90.27089938,12.69014184,-99999.0,'11111222,11111222,99999999' 
TABS,ioos:station:wmo:42050:1,2012-07-02T12:00:00Z,28.8425,-94.2433,2.0,85.23995895,13.25571952,-99999.0,'11111222,11111222,99999999' 
TABS,ioos:station:wmo:42050:1,2012-07-02T12:30:00Z,28.8425,-94.2433,2.0,102.7947037,13.32075824,-99999.0,'11111222,11111222,99999999' 
TABS,ioos:station:wmo:42050:1,2012-07-02T13:00:00Z,28.8425,-94.2433,2.0,98.01781246,10.8258256,-99999.0,'11111222,11111222,99999999' 
TABS,ioos:station:wmo:42050:1,2012-07-02T13:30:00Z,28.8425,-94.2433,2.0,103.724766,12.93946676,-99999.0,'11111222,11111222,99999999' 
TABS,ioos:station:wmo:42050:1,2012-07-02T14:00:00Z,28.8425,-94.2433,2.0,103.9274388,10.22046966,-99999.0,'11111222,11111222,99999999' 
TABS,ioos:station:wmo:42050:1,2012-07-02T14:30:00Z,28.8425,-94.2433,2.0,102.2945064,9.815100611,-99999.0,'11133222,11111222,99999999' 
TABS,ioos:station:wmo:42050:1,2012-07-02T15:00:00Z,28.8425,-94.2433,2.0,108.3673401,10.72645328,-99999.0,'11111222,11111222,99999999' 
TABS,ioos:station:wmo:42050:1,2012-07-02T15:30:00Z,28.8425,-94.2433,2.0,106.7467633,9.231532917,-99999.0,'11133222,11111222,99999999' 
TABS,ioos:station:wmo:42050:1,2012-07-02T16:00:00Z,28.8425,-94.2433,2.0,116.148163,6.762048506,-99999.0,'11133222,11111222,99999999' 
TABS,ioos:station:wmo:42050:1,2012-07-02T16:30:00Z,28.8425,-94.2433,2.0,132.6656317,8.159712005,-99999.0,'11133222,11111222,99999999' 
TABS,ioos:station:wmo:42050:1,2012-07-02T17:00:00Z,28.8425,-94.2433,2.0,129.321857,7.432805661,-99999.0,'11133222,11111222,99999999' 
TABS,ioos:station:wmo:42050:1,2012-07-02T17:30:00Z,28.8425,-94.2433,2.0,142.730332,6.308153454,-99999.0,'11133222,11111222,99999999' 
TABS,ioos:station:wmo:42050:1,2012-07-02T18:00:00Z,28.8425,-94.2433,2.0,150.026406,4.663743132,-99999.0,'11133222,11111222,99999999' 
TABS,ioos:station:wmo:42050:1,2012-07-02T18:30:00Z,28.8425,-94.2433,2.0,187.2382958,5.63490905,-99999.0,'11133222,11111222,99999999' 
TABS,ioos:station:wmo:42050:1,2012-07-02T19:00:00Z,28.8425,-94.2433,2.0,201.5310034,8.664640789,-99999.0,'11133222,11111222,99999999' 
TABS,ioos:station:wmo:42050:1,2012-07-02T19:30:00Z,28.8425,-94.2433,2.0,207.1840075,8.689867663,-99999.0,'11133222,11111222,99999999' 
TABS,ioos:station:wmo:42050:1,2012-07-02T20:00:00Z,28.8425,-94.2433,2.0,216.5407917,11.15218364,-99999.0,'11111222,11111222,99999999' 
TABS,ioos:station:wmo:42050:1,2012-07-02T20:30:00Z,28.8425,-94.2433,2.0,217.4495805,13.83070859,-99999.0,'11111222,11111222,99999999' 
TABS,ioos:station:wmo:42050:1,2012-07-02T21:00:00Z,28.8425,-94.2433,2.0,219.3301975,16.67737689,-99999.0,'11111222,11111222,99999999' 
TABS,ioos:station:wmo:42050:1,2012-07-02T21:30:00Z,28.8425,-94.2433,2.0,213.5465583,21.08144682,-99999.0,'11111222,11111222,99999999' 
TABS,ioos:station:wmo:42050:1,2012-07-02T22:00:00Z,28.8425,-94.2433,2.0,214.5107516,23.42184664,-99999.0,'11111222,11111222,99999999' 
TABS,ioos:station:wmo:42050:1,2012-07-02T22:30:00Z,28.8425,-94.2433,2.0,214.632412,24.95101802,-99999.0,'11111222,11111222,99999999' 
TABS,ioos:station:wmo:42050:1,2012-07-02T23:00:00Z,28.8425,-94.2433,2.0,223.9651124,25.06395021,-99999.0,'11111222,11111222,99999999' 
TABS,ioos:station:wmo:42050:1,2012-07-02T23:30:00Z,28.8425,-94.2433,2.0,226.045467,24.79529391,-99999.0,'11111222,11111222,99999999' 
TABS,ioos:station:wmo:42050:1,2012-07-03T00:00:00Z,28.8425,-94.2433,2.0,235.8650815,23.59488292,-99999.0,'11111222,11111222,99999999' 
TABS,ioos:station:wmo:42050:1,2012-07-03T00:30:00Z,28.8425,-94.2433,2.0,247.2494197,22.3162116,-99999.0,'11111222,11111222,99999999' 
TABS,ioos:station:wmo:42050:1,2012-07-03T01:00:00Z,28.8425,-94.2433,2.0,257.6014945,20.4468335,-99999.0,'11111222,11111222,99999999' 
TABS,ioos:station:wmo:42050:1,2012-07-03T01:30:00Z,28.8425,-94.2433,2.0,272.9662447,14.1088979,-99999.0,'11111222,11111222,99999999' 
TABS,ioos:station:wmo:42050:1,2012-07-03T02:00:00Z,28.8425,-94.2433,2.0,279.7092113,17.19629321,-99999.0,'11111222,11111222,99999999' 
TABS,ioos:station:wmo:42050:1,2012-07-03T02:30:00Z,28.8425,-94.2433,2.0,297.7849931,15.33842886,-99999.0,'11111222,11111222,99999999' 
TABS,ioos:station:wmo:42050:1,2012-07-03T03:00:00Z,28.8425,-94.2433,2.0,303.6304378,21.19787961,-99999.0,'11111222,11111222,99999999' 
TABS,ioos:station:wmo:42050:1,2012-07-03T03:30:00Z,28.8425,-94.2433,2.0,308.0608239,18.96209377,-99999.0,'11111222,11111222,99999999' 
TABS,ioos:station:wmo:42050:1,2012-07-03T04:00:00Z,28.8425,-94.2433,2.0,314.1727908,21.05276466,-99999.0,'11111222,11111222,99999999' 
TABS,ioos:station:wmo:42050:1,2012-07-03T04:30:00Z,28.8425,-94.2433,2.0,326.8501873,22.07250099,-99999.0,'11111222,11111222,99999999' 
TABS,ioos:station:wmo:42050:1,2012-07-03T05:00:00Z,28.8425,-94.2433,2.0,330.2911719,21.8524438,-99999.0,'11111222,11111222,99999999' 
TABS,ioos:station:wmo:42050:1,2012-07-03T05:30:00Z,28.8425,-94.2433,2.0,340.453377,18.74002401,-99999.0,'11111222,11111222,99999999' 
TABS,ioos:station:wmo:42050:1,2012-07-03T06:00:00Z,28.8425,-94.2433,2.0,340.4672411,14.35621468,-99999.0,'11111222,11111222,99999999' 
TABS,ioos:station:wmo:42050:1,2012-07-03T06:30:00Z,28.8425,-94.2433,2.0,353.8673851,15.25731955,-99999.0,'11111222,11111222,99999999' 
TABS,ioos:station:wmo:42050:1,2012-07-03T07:00:00Z,28.8425,-94.2433,2.0,0.931764878,17.22227627,-99999.0,'11111222,11111222,99999999' 
TABS,ioos:station:wmo:42050:1,2012-07-03T07:30:00Z,28.8425,-94.2433,2.0,6.641714066,13.22877545,-99999.0,'11111222,11111222,99999999' 
TABS,ioos:station:wmo:42050:1,2012-07-03T08:00:00Z,28.8425,-94.2433,2.0,19.07395874,11.62841778,-99999.0,'11111222,11111222,99999999' 
TABS,ioos:station:wmo:42050:1,2012-07-03T08:30:00Z,28.8425,-94.2433,2.0,17.33806928,12.71784966,-99999.0,'11111222,11111222,99999999' 
TABS,ioos:station:wmo:42050:1,2012-07-03T09:00:00Z,28.8425,-94.2433,2.0,25.3394662,11.91649697,-99999.0,'11111222,11111222,99999999' 
TABS,ioos:station:wmo:42050:1,2012-07-03T09:30:00Z,28.8425,-94.2433,2.0,41.16326861,11.83521018,-99999.0,'11111222,11111222,99999999' 
TABS,ioos:station:wmo:42050:1,2012-07-03T10:00:00Z,28.8425,-94.2433,2.0,54.38287056,10.88660186,-99999.0,'11111222,11111222,99999999' 
TABS,ioos:station:wmo:42050:1,2012-07-03T10:30:00Z,28.8425,-94.2433,2.0,58.96739572,8.554355616,-99999.0,'11133222,11111222,99999999' 
TABS,ioos:station:wmo:42050:1,2012-07-03T11:00:00Z,28.8425,-94.2433,2.0,70.65027151,9.50701846,-99999.0,'11133222,11111222,99999999' 
TABS,ioos:station:wmo:42050:1,2012-07-03T11:30:00Z,28.8425,-94.2433,2.0,92.32451354,15.53278146,-99999.0,'11111222,11111222,99999999' 
TABS,ioos:station:wmo:42050:1,2012-07-03T12:00:00Z,28.8425,-94.2433,2.0,98.24069256,17.58153577,-99999.0,'11111222,11111222,99999999' 
TABS,ioos:station:wmo:42050:1,2012-07-03T12:30:00Z,28.8425,-94.2433,2.0,107.1244496,17.42238216,-99999.0,'11111222,11111222,99999999' 
TABS,ioos:station:wmo:42050:1,2012-07-03T13:00:00Z,28.8425,-94.2433,2.0,112.114592,15.96446679,-99999.0,'11111222,11111222,99999999' 
TABS,ioos:station:wmo:42050:1,2012-07-03T13:30:00Z,28.8425,-94.2433,2.0,119.873668,18.7516186,-99999.0,'11111222,11111222,99999999' 
TABS,ioos:station:wmo:42050:1,2012-07-03T14:00:00Z,28.8425,-94.2433,2.0,113.9253764,18.83873669,-99999.0,'11111222,11111222,99999999' 
TABS,ioos:station:wmo:42050:1,2012-07-03T14:30:00Z,28.8425,-94.2433,2.0,114.4023263,18.25036986,-99999.0,'11111222,11111222,99999999' 
TABS,ioos:station:wmo:42050:1,2012-07-03T15:00:00Z,28.8425,-94.2433,2.0,121.4945193,16.28963474,-99999.0,'11111222,11111222,99999999' 
TABS,ioos:station:wmo:42050:1,2012-07-03T15:30:00Z,28.8425,-94.2433,2.0,116.2310344,17.64734824,-99999.0,'11111222,11111222,99999999' 
TABS,ioos:station:wmo:42050:1,2012-07-03T16:00:00Z,28.8425,-94.2433,2.0,126.0917991,19.58980602,-99999.0,'11111222,11111222,99999999' 
TABS,ioos:station:wmo:42050:1,2012-07-03T16:30:00Z,28.8425,-94.2433,2.0,133.1594368,18.27399518,-99999.0,'11111222,11111222,99999999' 
TABS,ioos:station:wmo:42050:1,2012-07-03T17:00:00Z,28.8425,-94.2433,2.0,134.7124239,18.32136731,-99999.0,'11111222,11111222,99999999' 
TABS,ioos:station:wmo:42050:1,2012-07-03T17:30:00Z,28.8425,-94.2433,2.0,139.4596075,15.27733616,-99999.0,'11111222,11111222,99999999' 
TABS,ioos:station:wmo:42050:1,2012-07-03T18:00:00Z,28.8425,-94.2433,2.0,153.2115718,17.21785411,-99999.0,'11111222,11111222,99999999' 
TABS,ioos:station:wmo:42050:1,2012-07-03T18:30:00Z,28.8425,-94.2433,2.0,156.7369817,15.21711208,-99999.0,'11111222,11111222,99999999' 
TABS,ioos:station:wmo:42050:1,2012-07-03T19:00:00Z,28.8425,-94.2433,2.0,163.7988581,15.08920806,-99999.0,'11111222,11111222,99999999' 
TABS,ioos:station:wmo:42050:1,2012-07-03T19:30:00Z,28.8425,-94.2433,2.0,165.8537525,16.44879631,-99999.0,'11111222,11111222,99999999' 
TABS,ioos:station:wmo:42050:1,2012-07-03T20:00:00Z,28.8425,-94.2433,2.0,174.7847232,15.07239198,-99999.0,'11111222,11111222,99999999' 
TABS,ioos:station:wmo:42050:1,2012-07-03T20:30:00Z,28.8425,-94.2433,2.0,184.2550176,16.84643879,-99999.0,'11111222,11111222,99999999' 
TABS,ioos:station:wmo:42050:1,2012-07-03T21:00:00Z,28.8425,-94.2433,2.0,189.7694667,19.91886794,-99999.0,'11111222,11111222,99999999' 
TABS,ioos:station:wmo:42050:1,2012-07-03T21:30:00Z,28.8425,-94.2433,2.0,194.1720941,19.40047938,-99999.0,'11111222,11111222,99999999' 
TABS,ioos:station:wmo:42050:1,2012-07-03T22:00:00Z,28.8425,-94.2433,2.0,197.8361058,21.18841665,-99999.0,'11111222,11111222,99999999' 
TABS,ioos:station:wmo:42050:1,2012-07-03T22:30:00Z,28.8425,-94.2433,2.0,204.539089,20.87555987,-99999.0,'11111222,11111222,99999999' 
TABS,ioos:station:wmo:42050:1,2012-07-03T23:00:00Z,28.8425,-94.2433,2.0,209.6661571,22.64876376,-99999.0,'11111222,11111222,99999999' 
TABS,ioos:station:wmo:42050:1,2012-07-03T23:30:00Z,28.8425,-94.2433,2.0,217.1136415,21.13019167,-99999.0,'11111222,11111222,99999999' 
TABS,ioos:station:wmo:42050:1,2012-07-04T00:00:00Z,28.8425,-94.2433,2.0,218.2280963,22.60835465,-99999.0,'11111222,11111222,99999999' 
TABS,ioos:station:wmo:42050:1,2012-07-04T00:30:00Z,28.8425,-94.2433,2.0,227.2622319,20.7768525,-99999.0,'11111222,11111222,99999999' 
TABS,ioos:station:wmo:42050:1,2012-07-04T01:00:00Z,28.8425,-94.2433,2.0,234.7340603,20.07386859,-99999.0,'11111222,11111222,99999999' 
TABS,ioos:station:wmo:42050:1,2012-07-04T01:30:00Z,28.8425,-94.2433,2.0,244.8737,14.60165744,-99999.0,'11111222,11111222,99999999' 
TABS,ioos:station:wmo:42050:1,2012-07-04T02:00:00Z,28.8425,-94.2433,2.0,250.1394642,15.12985459,-99999.0,'11111222,11111222,99999999' 
TABS,ioos:station:wmo:42050:1,2012-07-04T02:30:00Z,28.8425,-94.2433,2.0,261.0530703,13.69663462,-99999.0,'11111222,11111222,99999999' 
TABS,ioos:station:wmo:42050:1,2012-07-04T03:00:00Z,28.8425,-94.2433,2.0,276.5173675,11.4540124,-99999.0,'11111222,11111222,99999999' 
TABS,ioos:station:wmo:42050:1,2012-07-04T03:30:00Z,28.8425,-94.2433,2.0,301.7246952,11.88589921,-99999.0,'11111222,11111222,99999999' 
TABS,ioos:station:wmo:42050:1,2012-07-04T04:00:00Z,28.8425,-94.2433,2.0,320.234443,11.08415536,-99999.0,'11111222,11111222,99999999' 
TABS,ioos:station:wmo:42050:1,2012-07-04T04:30:00Z,28.8425,-94.2433,2.0,337.023976,12.86024883,-99999.0,'11111222,11111222,99999999' 
TABS,ioos:station:wmo:42050:1,2012-07-04T05:00:00Z,28.8425,-94.2433,2.0,352.2436832,14.96694024,-99999.0,'11111222,11111222,99999999' 
TABS,ioos:station:wmo:42050:1,2012-07-04T05:30:00Z,28.8425,-94.2433,2.0,357.2578301,15.25747358,-99999.0,'11111222,11111222,99999999' 
TABS,ioos:station:wmo:42050:1,2012-07-04T06:00:00Z,28.8425,-94.2433,2.0,355.9444706,16.40107314,-99999.0,'11111222,11111222,99999999' 
TABS,ioos:station:wmo:42050:1,2012-07-04T06:30:00Z,28.8425,-94.2433,2.0,2.331570094,15.7330226,-99999.0,'11111222,11111222,99999999' 
TABS,ioos:station:wmo:42050:1,2012-07-04T07:00:00Z,28.8425,-94.2433,2.0,10.0512198,16.96029481,-99999.0,'11111222,11111222,99999999' 
TABS,ioos:station:wmo:42050:1,2012-07-04T07:30:00Z,28.8425,-94.2433,2.0,17.66016728,10.05380028,-99999.0,'11111222,11111222,99999999' 
TABS,ioos:station:wmo:42050:1,2012-07-04T08:00:00Z,28.8425,-94.2433,2.0,21.29885067,13.54513935,-99999.0,'11111222,11111222,99999999' 
TABS,ioos:station:wmo:42050:1,2012-07-04T08:30:00Z,28.8425,-94.2433,2.0,24.33380913,15.04673054,-99999.0,'11111222,11111222,99999999' 
TABS,ioos:station:wmo:42050:1,2012-07-04T09:00:00Z,28.8425,-94.2433,2.0,35.23106892,12.37706346,-99999.0,'11111222,11111222,99999999' 
TABS,ioos:station:wmo:42050:1,2012-07-04T09:30:00Z,28.8425,-94.2433,2.0,53.62445938,13.9105176,-99999.0,'11111222,11111222,99999999' 
TABS,ioos:station:wmo:42050:1,2012-07-04T10:00:00Z,28.8425,-94.2433,2.0,63.13197673,11.83790944,-99999.0,'11111222,11111222,99999999' 
TABS,ioos:station:wmo:42050:1,2012-07-04T10:30:00Z,28.8425,-94.2433,2.0,69.11474858,14.05336259,-99999.0,'11111222,11111222,99999999' 
TABS,ioos:station:wmo:42050:1,2012-07-04T11:00:00Z,28.8425,-94.2433,2.0,82.86290497,11.75105102,-99999.0,'11111222,11111222,99999999' 
TABS,ioos:station:wmo:42050:1,2012-07-04T11:30:00Z,28.8425,-94.2433,2.0,89.40832762,17.43092941,-99999.0,'11111222,11111222,99999999' 
TABS,ioos:station:wmo:42050:1,2012-07-04T12:00:00Z,28.8425,-94.2433,2.0,103.9495742,19.24764921,-99999.0,'11111222,11111222,99999999' 
TABS,ioos:station:wmo:42050:1,2012-07-04T12:30:00Z,28.8425,-94.2433,2.0,106.4671762,20.81373585,-99999.0,'11111222,11111222,99999999' 
TABS,ioos:station:wmo:42050:1,2012-07-04T13:00:00Z,28.8425,-94.2433,2.0,111.0034062,20.53432492,-99999.0,'11111222,11111222,99999999' 
TABS,ioos:station:wmo:42050:1,2012-07-04T13:30:00Z,28.8425,-94.2433,2.0,112.9423612,19.67646564,-99999.0,'11111222,11111222,99999999' 
TABS,ioos:station:wmo:42050:1,2012-07-04T14:00:00Z,28.8425,-94.2433,2.0,116.4963304,22.3920008,-99999.0,'11111222,11111222,99999999' 
TABS,ioos:station:wmo:42050:1,2012-07-04T14:30:00Z,28.8425,-94.2433,2.0,117.2175612,19.24037682,-99999.0,'11111222,11111222,99999999' 
TABS,ioos:station:wmo:42050:1,2012-07-04T15:00:00Z,28.8425,-94.2433,2.0,114.6325981,19.09793706,-99999.0,'11111222,11111222,99999999' 
TABS,ioos:station:wmo:42050:1,2012-07-04T15:30:00Z,28.8425,-94.2433,2.0,120.2387275,18.70513299,-99999.0,'11111222,11111222,99999999' 
TABS,ioos:station:wmo:42050:1,2012-07-04T16:00:00Z,28.8425,-94.2433,2.0,115.6729144,18.09645545,-99999.0,'11111222,11111222,99999999' 